Location: Sawmill Trailhead
(33.5800°N, 116.4497°W)
Time: 09:05:57
(UTC-08:00)

Uosat F - Visible Passes

Search period start: 23 November 2014 00:00
Search period end: 03 December 2014 00:00
Orbit: 752 x 762 km, 98.7° (Epoch: 23 November)

Date Brightness Start Highest point End Pass type
(mag) Time Alt. Az. Time Alt. Az. Time Alt. Az.
23 Nov 12.0 03:52:25 10° NNE 03:57:13 45° E 04:01:59 10° S visible
23 Nov 12.4 05:32:23 10° NNW 05:35:36 17° WNW 05:38:48 10° WSW visible
24 Nov 13.6 03:14:33 10° NE 03:17:50 17° E 03:21:06 10° SE visible
24 Nov 11.3 04:52:02 10° N 04:56:45 42° WNW 05:01:26 10° SW visible
25 Nov 11.1 04:12:39 10° NNE 04:17:41 75° ESE 04:22:39 10° S visible
25 Nov 12.8 05:54:44 10° NW 05:55:46 11° WNW 05:56:48 10° WNW visible
25 Nov 14.6 17:04:50 10° WSW 17:05:55 11° W 17:07:01 10° W visible
26 Nov 12.9 03:34:06 10° NE 03:38:24 28° E 03:42:39 10° SSE visible
26 Nov 11.9 05:12:54 10° NNW 05:17:02 27° WNW 05:21:10 10° SW visible
27 Nov 14.1 02:58:09 10° E 02:58:55 10° E 02:59:40 10° E visible
27 Nov 10.9 04:33:06 10° N 04:38:05 68° WNW 04:43:01 10° SSW visible
28 Nov 12.0 03:54:05 10° NNE 03:58:54 46° E 04:03:41 10° S visible
28 Nov 12.4 05:34:07 10° NNW 05:37:16 17° WNW 05:40:24 10° WSW visible
29 Nov 13.6 03:16:11 10° NE 03:19:31 18° E 03:22:51 10° SE visible
29 Nov 11.4 04:53:44 10° N 04:58:25 41° WNW 05:03:05 10° SW visible
30 Nov 11.1 04:14:20 10° NNE 04:19:21 77° ESE 04:24:20 10° S visible
30 Nov 12.9 05:56:43 10° NW 05:57:25 10° WNW 05:58:08 10° WNW visible
30 Nov 14.6 17:06:52 10° W 17:07:37 10° W 17:08:22 10° W visible
01 Dec 12.8 03:35:45 10° NE 03:40:04 29° E 03:44:22 10° SSE visible
01 Dec 11.9 05:14:36 10° NNW 05:18:42 26° WNW 05:22:47 10° SW visible
02 Dec 14.1 02:59:31 10° E 03:00:35 11° E 03:01:40 10° ESE visible
02 Dec 10.9 04:34:46 10° N 04:39:44 66° WNW 04:44:40 10° SSW visible
